| time (UTC) | temp F | wind direction | speed knots | gust knots | rain 1hr in | rain 24hr in | rain mn in | humidity % | barometer mb |
| 20260903155213 | 71 | 206 | 0.0 | 0.0 | 0.01 | 0.37 | 0.37 | 94 | 1021.9 |
| 20260903152211 | 70 | 192 | 0.0 | 0.0 | 0.00 | 0.36 | 0.36 | 94 | 1022.5 |
| 20260903145209 | 69 | 216 | 1.7 | 1.7 | 0.18 | 0.36 | 0.36 | 95 | 1022.2 |
| 20260903142204 | 68 | 176 | 1.7 | 1.7 | 0.17 | 0.34 | 0.34 | 95 | 1021.5 |
| 20260903135159 | 70 | 312 | 0.9 | 0.9 | 0.00 | 0.03 | 0.03 | 91 | 1022.9 |
| 20260903132154 | 71 | 263 | 1.7 | 1.7 | 0.00 | 0.03 | 0.03 | 93 | 1021.9 |
| 20260903125149 | 71 | 195 | 1.7 | 1.7 | 0.00 | 0.03 | 0.03 | 93 | 1022.2 |
| 20260903122148 | 69 | 214 | 0.0 | 0.0 | 0.00 | 0.03 | 0.03 | 94 | 1021.5 |
| 20260903115142 | 68 | 186 | 1.7 | 1.7 | 0.03 | 0.03 | 0.03 | 95 | 1021.9 |
| 20260903112137 | 68 | 203 | 1.7 | 1.7 | 0.01 | 0.01 | 0.01 | 95 | 1022.2 |
| 20260903105137 | 68 | 268 | 2.6 | 2.6 | 0.00 | 0.00 | 0.00 | 93 | 1021.5 |
| 20260903102135 | 69 | 299 | 0.9 | 0.9 | 0.00 | 0.00 | 0.00 | 92 | 1022.2 |
| 20260903095134 | 70 | 84 | 1.7 | 1.7 | 0.00 | 0.00 | 0.00 | 88 | 1021.5 |
| 20260903092133 | 70 | 120 | 0.0 | 0.0 | 0.00 | 0.00 | 0.00 | 94 | 1021.9 |
| 20260903085133 | 70 | 264 | 0.0 | 0.0 | 0.00 | 0.00 | 0.00 | 97 | 1021.2 |
| 20260903082129 | 69 | 264 | 0.0 | 0.0 | 0.00 | 0.00 | 0.00 | 97 | 1021.2 |
| 20260903075125 | 69 | 253 | 0.0 | 0.0 | 0.00 | 0.00 | 0.00 | 97 | 1020.5 |
| 20260903072125 | 69 | 253 | 0.0 | 0.0 | 0.00 | 0.00 | 0.00 | 97 | 1020.2 |
| 20260903065123 | 68 | 253 | 0.0 | 0.0 | 0.00 | 0.00 | 0.00 | 97 | 1020.5 |
| 20260903062123 | 68 | 253 | 0.0 | 0.0 | 0.00 | 0.00 | 0.00 | 97 | 1020.5 |
| 20260903055121 | 69 | 253 | 0.0 | 0.0 | 0.00 | 0.00 | 0.00 | 97 | 1020.2 |
| 20260903052118 | 69 | 253 | 0.9 | 0.9 | 0.00 | 0.00 | 0.00 | 97 | 1020.2 |
| 20260903045116 | 69 | 253 | 0.0 | 0.0 | 0.00 | 0.00 | 0.00 | 97 | 1020.2 |
| 20260903042115 | 69 | 253 | 0.0 | 0.0 | 0.00 | 0.00 | 0.00 | 97 | 1020.5 |
| 20260903035112 | 69 | 253 | 0.0 | 0.0 | 0.00 | 0.29 | 0.29 | 97 | 1020.5 |
| 20260903032111 | 69 | 253 | 0.0 | 0.0 | 0.00 | 0.29 | 0.29 | 97 | 1021.2 |
| 20260903025106 | 69 | 253 | 1.7 | 1.7 | 0.00 | 0.29 | 0.29 | 97 | 1020.5 |
| 20260903022101 | 70 | 253 | 0.0 | 0.0 | 0.00 | 0.29 | 0.29 | 97 | 1020.5 |
| 20260903015100 | 70 | 253 | 0.0 | 0.0 | 0.00 | 0.29 | 0.29 | 96 | 1020.8 |
| 20260903012059 | 71 | 253 | 0.0 | 0.0 | 0.00 | 0.29 | 0.29 | 96 | 1020.8 |
| 20260903005055 | 72 | 253 | 0.0 | 0.0 | 0.00 | 0.29 | 0.29 | 96 | 1020.5 |
| 20260903002054 | 73 | 253 | 0.0 | 0.0 | 0.00 | 0.29 | 0.29 | 95 | 1020.5 |
| 20260902235050 | 73 | 127 | 0.0 | 0.0 | 0.11 | 0.28 | 0.28 | 95 | 1021.2 |
| 20260902232049 | 74 | 197 | 0.0 | 0.0 | 0.04 | 0.22 | 0.22 | 93 | 1021.9 |
| 20260902225044 | 75 | 196 | 0.0 | 0.0 | 0.00 | 0.15 | 0.15 | 89 | 1021.2 |
| 20260902222043 | 78 | 196 | 1.7 | 1.7 | 0.00 | 0.15 | 0.15 | 80 | 1020.5 |
| 20260902215043 | 80 | 121 | 0.0 | 0.0 | 0.00 | 0.15 | 0.15 | 72 | 1020.5 |
| 20260902212041 | 82 | 122 | 3.5 | 3.5 | 0.00 | 0.15 | 0.15 | 65 | 1021.2 |
| 20260902205038 | 81 | 197 | 0.9 | 0.9 | 0.00 | 0.15 | 0.15 | 68 | 1021.2 |
| 20260902202037 | 83 | 83 | 1.7 | 1.7 | 0.00 | 0.15 | 0.15 | 64 | 1021.2 |
| 20260902195036 | 85 | 222 | 0.0 | 0.0 | 0.00 | 0.15 | 0.15 | 60 | 1021.2 |
| 20260902192036 | 79 | 276 | 1.7 | 1.7 | 0.00 | 0.15 | 0.15 | 73 | 1021.5 |
| 20260902185032 | 79 | 221 | 1.7 | 1.7 | 0.00 | 0.15 | 0.15 | 76 | 1021.9 |
| 20260902182030 | 77 | 264 | 1.7 | 1.7 | 0.00 | 0.15 | 0.15 | 80 | 1021.9 |
| 20260902175030 | 78 | 288 | 0.0 | 0.0 | 0.00 | 0.15 | 0.15 | 76 | 1022.2 |
| 20260902172027 | 71 | 82 | 1.7 | 1.7 | 0.00 | 0.15 | 0.15 | 94 | 1022.9 |
| 20260902165027 | 71 | 59 | 0.0 | 0.0 | 0.15 | 0.15 | 0.15 | 92 | 1023.7 |